QPF
0.31 0.25 0.18 0.15 0.10 0.11 0.08 0.05 0.03 0.06 0.08 0.03 0.01 0.01 0.02 0.03 0.03 0.05 0.07 0.06 0.05 0.04 0.05 0.09 0.12 0.12 0.14 0.13 0.11 0.09 0.09 0.09 0.07 0.07 0.06 0.06 0.05 0.05 0.04 0.03 0.02 0.02 0.01 0.01 0.00 0.00 0.01 0.01 0.01
0.29 0.25 0.18 0.17 0.13 0.09 0.06 0.04 0.05 0.06 0.05 0.02 0.01 0.01 0.02 0.02 0.01 0.02 0.08 0.09 0.04 0.05 0.05 0.07 0.10 0.12 0.13 0.13 0.13 0.12 0.10 0.08 0.06 0.06 0.06 0.06 0.06 0.06 0.06 0.05 0.04 0.04 0.03 0.03 0.03 0.02 0.01 0.01 0.01
0.29 0.30 0.23 0.20 0.13 0.06 0.06 0.05 0.05 0.05 0.03 0.03 0.02 0.01 0.01 0.01 0.01 0.03 0.08 0.05 0.03 0.03 0.03 0.05 0.08 0.10 0.10 0.11 0.12 0.12 0.13 0.11 0.09 0.07 0.07 0.07 0.07 0.06 0.07 0.08 0.07 0.07 0.07 0.07 0.06 0.04 0.03 0.02 0.01
0.25 0.18 0.15 0.14 0.09 0.05 0.04 0.05 0.05 0.04 0.04 0.01 0.01 0.01 0.00 0.00 0.01 0.04 0.05 0.03 0.03 0.02 0.02 0.02 0.05 0.06 0.07 0.08 0.08 0.09 0.09 0.10 0.10 0.09 0.09 0.10 0.09 0.10 0.10 0.10 0.09 0.09 0.11 0.11 0.10 0.07 0.05 0.04 0.02
0.16 0.15 0.15 0.12 0.08 0.05 0.03 0.03 0.03 0.03 0.03 0.01 0.01 0.01 0.01 0.00 0.01 0.02 0.03 0.02 0.01 0.01 0.01 0.02 0.03 0.03 0.04 0.05 0.05 0.05 0.06 0.06 0.06 0.07 0.07 0.08 0.10 0.12 0.12 0.13 0.13 0.15 0.16 0.16 0.16 0.12 0.08 0.06 0.05
0.15 0.11 0.11 0.09 0.07 0.05 0.04 0.03 0.02 0.02 0.02 0.01 0.01 0.01 0.01 0.01 0.01 0.01 0.01 0.01 0.00 0.00 0.00 0.01 0.01 0.01 0.01 0.02 0.02 0.03 0.03 0.03 0.03 0.05 0.05 0.07 0.09 0.11 0.13 0.14 0.14 0.17 0.19 0.21 0.22 0.20 0.14 0.11 0.09
0.15 0.11 0.09 0.08 0.08 0.08 0.07 0.05 0.05 0.04 0.03 0.01 0.00 0.00 0.01 0.01 0.00 0.01 0.01 0.01 0.00 0.00 0.01 0.01 0.01 0.00 0.00 0.01 0.01 0.01 0.01 0.01 0.02 0.03 0.04 0.05 0.07 0.08 0.10 0.13 0.14 0.16 0.18 0.21 0.23 0.25 0.22 0.17 0.13
0.12 0.11 0.10 0.09 0.08 0.07 0.06 0.06 0.06 0.04 0.02 0.00 0.00 0.00 0.01 0.00 0.00 0.00 0.00 0.00 0.01 0.01 0.00 0.00 0.00 0.00 0.00 0.00 0.00 0.00 0.00 0.01 0.01 0.02 0.03 0.03 0.04 0.06 0.07 0.09 0.11 0.14 0.18 0.20 0.22 0.24 0.22 0.21 0.16
0.13 0.14 0.10 0.07 0.07 0.05 0.04 0.06 0.04 0.01 0.01 0.01 0.00 0.00 0.00 0.00 0.00 0.00 0.01 0.00 0.00 0.00 0.00 0.00 0.00 0.00 0.00 0.00 0.00 0.00 0.00 0.00 0.00 0.00 0.01 0.01 0.02 0.03 0.05 0.08 0.10 0.12 0.14 0.17 0.21 0.25 0.24 0.22 0.18
0.17 0.15 0.06 0.04 0.04 0.04 0.05 0.05 0.03 0.02 0.02 0.01 0.01 0.00 0.00 0.00 0.01 0.01 0.01 0.00 0.00 0.00 0.00 0.00 0.00 0.00 0.00 0.00 0.00 0.00 0.00 0.00 0.00 0.00 0.00 0.01 0.02 0.02 0.02 0.04 0.07 0.11 0.13 0.14 0.18 0.23 0.23 0.21 0.19
0.11 0.07 0.03 0.02 0.02 0.02 0.02 0.02 0.01 0.02 0.01 0.01 0.00 0.00 0.00 0.00 0.00 0.00 0.00 0.00 0.00 0.00 0.00 0.00 0.00 0.00 0.00 0.00 0.00 0.00 0.00 0.00 0.00 0.00 0.00 0.01 0.01 0.01 0.01 0.02 0.03 0.07 0.09 0.11 0.14 0.16 0.15 0.16 0.16
0.07 0.04 0.02 0.01 0.01 0.01 0.02 0.02 0.02 0.02 0.01 0.00 0.00 0.00 0.00 0.00 0.00 0.00 0.00 0.00 0.00 0.00 0.00 0.00 0.00 0.00 0.00 0.00 0.00 0.00 0.00 0.00 0.00 0.00 0.01 0.01 0.01 0.01 0.01 0.03 0.03 0.04 0.07 0.10 0.12 0.13 0.12 0.11 0.11
0.06 0.03 0.02 0.02 0.01 0.01 0.01 0.01 0.01 0.01 0.00 0.00 0.00 0.00 0.00 0.00 0.00 0.00 0.00 0.00 0.00 0.00 0.00 0.00 0.00 0.00 0.00 0.00 0.00 0.00 0.00 0.00 0.01 0.01 0.01 0.01 0.01 0.01 0.02 0.02 0.03 0.04 0.06 0.08 0.11 0.11 0.10 0.11 0.10
0.03 0.02 0.01 0.01 0.01 0.01 0.01 0.01 0.01 0.01 0.00 0.00 0.00 0.00 0.00 0.00 0.00 0.00 0.00 0.00 0.00 0.00 0.00 0.00 0.00 0.00 0.00 0.00 0.00 0.00 0.00 0.00 0.01 0.02 0.02 0.01 0.01 0.01 0.02 0.02 0.03 0.03 0.04 0.07 0.11 0.13 0.14 0.16 0.12
0.02 0.02 0.01 0.00 0.00 0.01 0.01 0.01 0.00 0.00 0.00 0.00 0.00 0.00 0.00 0.00 0.00 0.00 0.00 0.00 0.00 0.00 0.00 0.00 0.00 0.00 0.00 0.00 0.00 0.00 0.00 0.01 0.02 0.02 0.01 0.02 0.02 0.01 0.01 0.02 0.03 0.03 0.03 0.05 0.07 0.11 0.13 0.14 0.13
0.05 0.03 0.02 0.01 0.00 0.01 0.01 0.01 0.00 0.00 0.00 0.00 0.00 0.00 0.00 0.00 0.00 0.00 0.00 0.00 0.00 0.00 0.00 0.00 0.00 0.00 0.00 0.00 0.00 0.00 0.00 0.01 0.01 0.01 0.01 0.01 0.01 0.01 0.02 0.02 0.03 0.03 0.04 0.04 0.05 0.08 0.11 0.15 0.15
0.05 0.03 0.01 0.01 0.00 0.00 0.01 0.00 0.00 0.00 0.00 0.00 0.00 0.00 0.00 0.00 0.00 0.00 0.00 0.00 0.00 0.00 0.00 0.00 0.00 0.00 0.00 0.00 0.00 0.00 0.00 0.00 0.00 0.01 0.01 0.01 0.01 0.01 0.02 0.02 0.03 0.03 0.04 0.05 0.04 0.05 0.06 0.11 0.14
0.03 0.01 0.00 0.00 0.00 0.00 0.00 0.00 0.00 0.00 0.00 0.00 0.00 0.00 0.00 0.00 0.00 0.00 0.00 0.00 0.00 0.00 0.00 0.00 0.00 0.00 0.00 0.00 0.00 0.00 0.00 0.00 0.00 0.00 0.00 0.00 0.00 0.01 0.03 0.03 0.03 0.04 0.05 0.05 0.05 0.05 0.06 0.07 0.10
0.02 0.01 0.00 0.00 0.00 0.00 0.00 0.00 0.00 0.00 0.00 0.00 0.00 0.00 0.00 0.00 0.00 0.00 0.00 0.00 0.00 0.00 0.00 0.00 0.00 0.00 0.00 0.00 0.00 0.00 0.00 0.00 0.00 0.00 0.00 0.01 0.01 0.01 0.03 0.04 0.04 0.05 0.06 0.05 0.04 0.05 0.06 0.05 0.06
0.02 0.01 0.00 0.00 0.00 0.00 0.00 0.00 0.00 0.00 0.00 0.00 0.00 0.00 0.00 0.00 0.00 0.00 0.00 0.00 0.00 0.00 0.00 0.00 0.00 0.00 0.00 0.00 0.00 0.00 0.00 0.00 0.00 0.00 0.00 0.01 0.01 0.01 0.00 0.02 0.02 0.02 0.04 0.05 0.05 0.04 0.06 0.06 0.05
0.03 0.01 0.00 0.01 0.00 0.00 0.00 0.00 0.00 0.00 0.00 0.00 0.00 0.00 0.00 0.00 0.00 0.00 0.00 0.00 0.00 0.00 0.00 0.00 0.00 0.00 0.00 0.00 0.00 0.00 0.00 0.00 0.00 0.00 0.00 0.00 0.00 0.01 0.01 0.01 0.01 0.01 0.02 0.03 0.05 0.05 0.05 0.06 0.06
0.03 0.01 0.01 0.01 0.01 0.00 0.00 0.00 0.00 0.00 0.00 0.00 0.00 0.00 0.00 0.00 0.00 0.00 0.00 0.00 0.00 0.00 0.00 0.00 0.00 0.00 0.00 0.00 0.00 0.00 0.00 0.00 0.00 0.00 0.00 0.00 0.00 0.00 0.00 0.01 0.02 0.01 0.01 0.01 0.02 0.03 0.04 0.05 0.05
0.05 0.03 0.02 0.01 0.00 0.00 0.00 0.00 0.00 0.00 0.00 0.00 0.00 0.00 0.00 0.00 0.00 0.00 0.00 0.00 0.00 0.00 0.00 0.00 0.00 0.00 0.00 0.00 0.00 0.00 0.00 0.00 0.00 0.00 0.00 0.00 0.00 0.00 0.00 0.00 0.01 0.02 0.01 0.01 0.01 0.01 0.02 0.03 0.04
0.06 0.04 0.02 0.01 0.00 0.00 0.00 0.00 0.00 0.00 0.00 0.00 0.00 0.00 0.00 0.00 0.00 0.00 0.00 0.00 0.00 0.00 0.00 0.00 0.00 0.00 0.00 0.00 0.00 0.00 0.00 0.00 0.00 0.00 0.00 0.00 0.00 0.00 0.00 0.00 0.00 0.01 0.01 0.01 0.01 0.01 0.01 0.02 0.02
0.04 0.03 0.01 0.00 0.00 0.00 0.00 0.00 0.00 0.00 0.00 0.00 0.00 0.00 0.00 0.00 0.00 0.00 0.00 0.00 0.00 0.00 0.00 0.00 0.00 0.00 0.00 0.00 0.00 0.00 0.00 0.00 0.00 0.00 0.00 0.00 0.00 0.00 0.00 0.00 0.00 0.00 0.00 0.00 0.00 0.01 0.02 0.01 0.01
0.02 0.01 0.01 0.00 0.00 0.00 0.00 0.00 0.00 0.00 0.00 0.00 0.00 0.00 0.00 0.00 0.00 0.00 0.00 0.00 0.00 0.00 0.00 0.00 0.00 0.00 0.00 0.00 0.00 0.00 0.00 0.00 0.00 0.00 0.00 0.00 0.00 0.00 0.00 0.00 0.00 0.00 0.00 0.00 0.00 0.01 0.01 0.01 0.01
0.01 0.00 0.00 0.00 0.00 0.00 0.00 0.00 0.00 0.00 0.00 0.00 0.00 0.00 0.00 0.00 0.00 0.00 0.00 0.00 0.00 0.00 0.00 0.00 0.00 0.00 0.00 0.00 0.00 0.00 0.00 0.00 0.00 0.00 0.00 0.00 0.00 0.00 0.00 0.00 0.00 0.00 0.00 0.00 0.00 0.00 0.00 0.00 0.00
0.00 0.01 0.00 0.00 0.00 0.00 0.00 0.00 0.00 0.00 0.00 0.00 0.00 0.00 0.00 0.00 0.00 0.00 0.00 0.00 0.00 0.00 0.00 0.00 0.00 0.00 0.00 0.00 0.00 0.00 0.00 0.00 0.00 0.00 0.00 0.00 0.00 0.00 0.00 0.00 0.00 0.00 0.00 0.00 0.00 0.00 0.00 0.00 0.00
0.00 0.00 0.00 0.00 0.00 0.00 0.00 0.00 0.00 0.00 0.00 0.00 0.00 0.00 0.00 0.00 0.00 0.00 0.00 0.00 0.00 0.00 0.00 0.00 0.00 0.00 0.00 0.00 0.00 0.00 0.00 0.00 0.00 0.00 0.00 0.00 0.00 0.00 0.00 0.00 0.00 0.00 0.00 0.00 0.00 0.00 0.00 0.00 0.00
0.00 0.00 0.00 0.00 0.00 0.00 0.00 0.00 0.00 0.00 0.00 0.00 0.00 0.00 0.00 0.00 0.00 0.00 0.00 0.00 0.00 0.00 0.00 0.00 0.00 0.00 0.00 0.00 0.00 0.00 0.00 0.00 0.00 0.00 0.00 0.00 0.00 0.00 0.00 0.00 0.00 0.00 0.00 0.00 0.00 0.00 0.00 0.00 0.00
MSLP
1013.12 1013.70 1014.26 1014.71 1014.96 1014.97 1014.74 1014.32 1013.78 1013.24 1012.81 1012.55 1012.50 1012.64 1012.90 1013.19 1013.41 1013.49 1013.41 1013.19 1012.88 1012.59 1012.38 1012.31 1012.42 1012.66 1012.96 1013.26 1013.48 1013.59 1013.58 1013.49 1013.36 1013.26 1013.23 1013.27 1013.37 1013.48 1013.57 1013.59 1013.55 1013.46 1013.35 1013.26 1013.23 1013.27 1013.36 1013.46 1013.54
1013.15 1013.83 1014.45 1014.90 1015.11 1015.03 1014.70 1014.17 1013.54 1012.95 1012.49 1012.25 1012.25 1012.44 1012.75 1013.08 1013.32 1013.41 1013.32 1013.09 1012.79 1012.51 1012.33 1012.31 1012.46 1012.73 1013.05 1013.35 1013.56 1013.64 1013.60 1013.48 1013.34 1013.23 1013.19 1013.22 1013.29 1013.38 1013.43 1013.43 1013.36 1013.25 1013.13 1013.06 1013.06 1013.13 1013.25 1013.38 1013.48
1013.14 1013.88 1014.52 1014.95 1015.10 1014.95 1014.52 1013.91 1013.24 1012.63 1012.19 1012.00 1012.05 1012.29 1012.64 1012.98 1013.22 1013.29 1013.20 1012.97 1012.69 1012.46 1012.34 1012.37 1012.57 1012.87 1013.20 1013.49 1013.67 1013.72 1013.64 1013.49 1013.33 1013.20 1013.14 1013.15 1013.21 1013.27 1013.29 1013.26 1013.16 1013.04 1012.93 1012.88 1012.90 1012.99 1013.14 1013.29 1013.39
1013.10 1013.87 1014.49 1014.87 1014.95 1014.73 1014.24 1013.60 1012.92 1012.35 1011.97 1011.83 1011.94 1012.22 1012.59 1012.93 1013.15 1013.20 1013.09 1012.88 1012.64 1012.46 1012.40 1012.51 1012.75 1013.08 1013.41 1013.67 1013.81 1013.81 1013.69 1013.51 1013.32 1013.17 1013.10 1013.10 1013.14 1013.17 1013.17 1013.11 1013.00 1012.87 1012.77 1012.72 1012.76 1012.87 1013.03 1013.18 1013.28
1013.06 1013.80 1014.38 1014.69 1014.70 1014.41 1013.90 1013.27 1012.64 1012.14 1011.85 1011.79 1011.96 1012.28 1012.64 1012.95 1013.14 1013.16 1013.05 1012.85 1012.65 1012.53 1012.54 1012.70 1012.99 1013.32 1013.64 1013.86 1013.95 1013.90 1013.73 1013.51 1013.31 1013.15 1013.07 1013.05 1013.07 1013.09 1013.06 1012.98 1012.86 1012.72 1012.62 1012.58 1012.63 1012.75 1012.90 1013.05 1013.15
1013.02 1013.71 1014.20 1014.42 1014.36 1014.04 1013.53 1012.95 1012.41 1012.02 1011.83 1011.87 1012.10 1012.43 1012.78 1013.06 1013.20 1013.19 1013.07 1012.89 1012.73 1012.67 1012.73 1012.94 1013.24 1013.56 1013.84 1014.01 1014.04 1013.94 1013.73 1013.49 1013.27 1013.11 1013.02 1013.00 1013.01 1013.00 1012.95 1012.85 1012.71 1012.57 1012.46 1012.43 1012.48 1012.60 1012.75 1012.88 1012.96
1012.99 1013.59 1013.97 1014.10 1013.96 1013.62 1013.15 1012.65 1012.22 1011.96 1011.89 1012.02 1012.30 1012.64 1012.97 1013.20 1013.30 1013.26 1013.13 1012.97 1012.85 1012.83 1012.94 1013.16 1013.45 1013.74 1013.97 1014.08 1014.05 1013.90 1013.67 1013.42 1013.20 1013.04 1012.96 1012.92 1012.91 1012.88 1012.80 1012.67 1012.51 1012.36 1012.25 1012.22 1012.27 1012.38 1012.52 1012.64 1012.70
1012.97 1013.45 1013.70 1013.73 1013.54 1013.19 1012.77 1012.36 1012.06 1011.92 1011.97 1012.18 1012.49 1012.83 1013.12 1013.32 1013.38 1013.33 1013.20 1013.06 1012.98 1012.99 1013.12 1013.33 1013.59 1013.83 1014.00 1014.04 1013.97 1013.78 1013.54 1013.29 1013.09 1012.94 1012.85 1012.81 1012.77 1012.70 1012.58 1012.42 1012.23 1012.07 1011.96 1011.93 1011.98 1012.09 1012.22 1012.33 1012.37
1012.93 1013.28 1013.41 1013.34 1013.10 1012.76 1012.39 1012.09 1011.90 1011.88 1012.01 1012.27 1012.59 1012.92 1013.18 1013.34 1013.39 1013.33 1013.23 1013.12 1013.08 1013.11 1013.24 1013.44 1013.65 1013.83 1013.92 1013.91 1013.79 1013.59 1013.36 1013.13 1012.94 1012.80 1012.72 1012.65 1012.57 1012.45 1012.29 1012.09 1011.87 1011.70 1011.58 1011.55 1011.61 1011.72 1011.85 1011.96 1012.00
1012.85 1013.08 1013.10 1012.95 1012.68 1012.36 1012.05 1011.83 1011.73 1011.78 1011.97 1012.24 1012.56 1012.86 1013.09 1013.23 1013.27 1013.24 1013.18 1013.12 1013.12 1013.18 1013.31 1013.47 1013.63 1013.74 1013.78 1013.72 1013.57 1013.37 1013.15 1012.94 1012.78 1012.65 1012.56 1012.46 1012.34 1012.17 1011.95 1011.70 1011.46 1011.26 1011.15 1011.13 1011.19 1011.32 1011.46 1011.58 1011.63
1012.74 1012.87 1012.81 1012.61 1012.32 1012.03 1011.77 1011.61 1011.57 1011.65 1011.84 1012.10 1012.38 1012.64 1012.84 1012.97 1013.03 1013.05 1013.05 1013.06 1013.10 1013.20 1013.32 1013.45 1013.56 1013.61 1013.59 1013.50 1013.34 1013.15 1012.95 1012.78 1012.63 1012.51 1012.40 1012.26 1012.09 1011.86 1011.59 1011.30 1011.03 1010.82 1010.71 1010.70 1010.79 1010.93 1011.09 1011.23 1011.31
1012.60 1012.66 1012.55 1012.33 1012.05 1011.79 1011.58 1011.45 1011.43 1011.50 1011.66 1011.86 1012.08 1012.28 1012.46 1012.60 1012.70 1012.78 1012.85 1012.94 1013.04 1013.17 1013.29 1013.40 1013.47 1013.48 1013.43 1013.31 1013.16 1012.98 1012.82 1012.67 1012.53 1012.41 1012.27 1012.09 1011.86 1011.58 1011.26 1010.94 1010.65 1010.44 1010.33 1010.34 1010.44 1010.61 1010.80 1010.96 1011.07
1012.45 1012.47 1012.35 1012.14 1011.90 1011.67 1011.49 1011.38 1011.34 1011.37 1011.45 1011.57 1011.71 1011.86 1012.01 1012.16 1012.31 1012.46 1012.62 1012.79 1012.96 1013.12 1013.26 1013.35 1013.39 1013.38 1013.30 1013.19 1013.05 1012.90 1012.76 1012.63 1012.50 1012.37 1012.20 1011.97 1011.70 1011.37 1011.01 1010.66 1010.36 1010.15 1010.06 1010.07 1010.19 1010.38 1010.59 1010.79 1010.93
1012.32 1012.34 1012.24 1012.07 1011.87 1011.68 1011.53 1011.40 1011.32 1011.28 1011.27 1011.30 1011.35 1011.45 1011.58 1011.74 1011.94 1012.17 1012.41 1012.65 1012.88 1013.07 1013.22 1013.31 1013.34 1013.32 1013.25 1013.15 1013.03 1012.91 1012.80 1012.68 1012.55 1012.39 1012.19 1011.93 1011.61 1011.25 1010.87 1010.51 1010.22 1010.01 1009.91 1009.94 1010.06 1010.25 1010.48 1010.70 1010.88
1012.23 1012.26 1012.20 1012.09 1011.95 1011.80 1011.65 1011.51 1011.37 1011.25 1011.14 1011.07 1011.05 1011.09 1011.20 1011.39 1011.64 1011.93 1012.24 1012.54 1012.81 1013.03 1013.19 1013.28 1013.32 1013.30 1013.25 1013.18 1013.10 1013.01 1012.91 1012.80 1012.66 1012.48 1012.24 1011.95 1011.60 1011.23 1010.85 1010.49 1010.20 1009.99 1009.90 1009.91 1010.02 1010.20 1010.42 1010.65 1010.87
1012.19 1012.25 1012.24 1012.18 1012.09 1011.97 1011.83 1011.66 1011.46 1011.25 1011.05 1010.90 1010.81 1010.82 1010.92 1011.13 1011.42 1011.76 1012.12 1012.46 1012.75 1012.99 1013.15 1013.26 1013.31 1013.32 1013.30 1013.27 1013.23 1013.17 1013.09 1012.98 1012.82 1012.61 1012.34 1012.03 1011.67 1011.30 1010.92 1010.58 1010.30 1010.09 1009.98 1009.96 1010.04 1010.19 1010.39 1010.62 1010.86
1012.21 1012.29 1012.31 1012.30 1012.25 1012.15 1012.00 1011.79 1011.54 1011.25 1010.98 1010.76 1010.62 1010.61 1010.72 1010.94 1011.27 1011.64 1012.03 1012.39 1012.70 1012.94 1013.11 1013.22 1013.30 1013.34 1013.37 1013.39 1013.39 1013.37 1013.30 1013.18 1013.01 1012.77 1012.49 1012.16 1011.80 1011.44 1011.09 1010.77 1010.49 1010.28 1010.14 1010.08 1010.10 1010.19 1010.36 1010.58 1010.83
1012.27 1012.35 1012.40 1012.42 1012.39 1012.29 1012.13 1011.88 1011.56 1011.21 1010.87 1010.60 1010.44 1010.42 1010.54 1010.79 1011.15 1011.55 1011.95 1012.31 1012.62 1012.86 1013.04 1013.17 1013.27 1013.36 1013.45 1013.52 1013.57 1013.57 1013.52 1013.40 1013.21 1012.96 1012.66 1012.32 1011.98 1011.64 1011.31 1011.02 1010.75 1010.53 1010.35 1010.23 1010.19 1010.22 1010.33 1010.52 1010.77
1012.35 1012.43 1012.49 1012.51 1012.49 1012.38 1012.18 1011.88 1011.50 1011.09 1010.70 1010.39 1010.22 1010.20 1010.34 1010.62 1011.00 1011.42 1011.83 1012.20 1012.50 1012.74 1012.93 1013.08 1013.23 1013.37 1013.51 1013.64 1013.74 1013.78 1013.74 1013.62 1013.42 1013.15 1012.85 1012.52 1012.19 1011.88 1011.59 1011.32 1011.06 1010.82 1010.61 1010.44 1010.32 1010.28 1010.33 1010.48 1010.71
1012.42 1012.49 1012.56 1012.59 1012.55 1012.42 1012.17 1011.81 1011.36 1010.88 1010.44 1010.10 1009.91 1009.90 1010.07 1010.38 1010.78 1011.23 1011.65 1012.03 1012.34 1012.59 1012.79 1012.98 1013.16 1013.36 1013.56 1013.75 1013.89 1013.97 1013.95 1013.83 1013.63 1013.36 1013.05 1012.74 1012.43 1012.16 1011.90 1011.65 1011.41 1011.17 1010.92 1010.70 1010.52 1010.41 1010.39 1010.50 1010.71
1012.46 1012.55 1012.63 1012.66 1012.61 1012.44 1012.14 1011.70 1011.17 1010.62 1010.11 1009.73 1009.52 1009.51 1009.70 1010.04 1010.47 1010.95 1011.40 1011.80 1012.12 1012.39 1012.63 1012.85 1013.09 1013.34 1013.60 1013.83 1014.02 1014.12 1014.12 1014.02 1013.81 1013.55 1013.25 1012.96 1012.69 1012.45 1012.23 1012.02 1011.80 1011.56 1011.29 1011.03 1010.80 1010.64 1010.57 1010.63 1010.81
1012.48 1012.60 1012.72 1012.77 1012.72 1012.51 1012.14 1011.62 1010.99 1010.35 1009.76 1009.32 1009.07 1009.05 1009.25 1009.61 1010.08 1010.59 1011.08 1011.51 1011.87 1012.18 1012.45 1012.72 1013.00 1013.30 1013.60 1013.88 1014.10 1014.23 1014.25 1014.16 1013.97 1013.72 1013.44 1013.18 1012.94 1012.74 1012.57 1012.39 1012.20 1011.98 1011.72 1011.44 1011.18 1010.98 1010.87 1010.89 1011.02
1012.46 1012.67 1012.85 1012.94 1012.90 1012.66 1012.23 1011.61 1010.89 1010.13 1009.45 1008.92 1008.62 1008.58 1008.76 1009.14 1009.64 1010.19 1010.72 1011.20 1011.61 1011.96 1012.27 1012.58 1012.90 1013.23 1013.57 1013.88 1014.12 1014.28 1014.31 1014.24 1014.07 1013.84 1013.59 1013.36 1013.16 1013.01 1012.88 1012.75 1012.59 1012.40 1012.16 1011.89 1011.63 1011.41 1011.28 1011.26 1011.35
1012.44 1012.75 1013.02 1013.18 1013.16 1012.90 1012.41 1011.71 1010.88 1010.01 1009.22 1008.60 1008.23 1008.14 1008.31 1008.69 1009.21 1009.80 1010.37 1010.90 1011.35 1011.74 1012.09 1012.43 1012.78 1013.13 1013.48 1013.81 1014.07 1014.23 1014.29 1014.23 1014.09 1013.89 1013.68 1013.49 1013.33 1013.22 1013.13 1013.05 1012.94 1012.79 1012.58 1012.35 1012.10 1011.89 1011.74 1011.69 1011.73
1012.42 1012.85 1013.23 1013.46 1013.47 1013.20 1012.67 1011.89 1010.96 1009.99 1009.09 1008.39 1007.95 1007.80 1007.94 1008.31 1008.84 1009.45 1010.07 1010.63 1011.13 1011.55 1011.93 1012.28 1012.63 1012.98 1013.33 1013.65 1013.91 1014.09 1014.16 1014.13 1014.02 1013.87 1013.70 1013.54 1013.43 1013.36 1013.31 1013.27 1013.21 1013.10 1012.95 1012.75 1012.54 1012.34 1012.19 1012.12 1012.12
1012.40 1012.95 1013.42 1013.71 1013.75 1013.49 1012.93 1012.10 1011.09 1010.04 1009.06 1008.28 1007.77 1007.58 1007.68 1008.04 1008.58 1009.20 1009.83 1010.42 1010.93 1011.37 1011.75 1012.10 1012.44 1012.78 1013.11 1013.42 1013.67 1013.85 1013.95 1013.95 1013.88 1013.77 1013.64 1013.53 1013.46 1013.42 1013.41 1013.41 1013.39 1013.33 1013.22 1013.07 1012.90 1012.72 1012.58 1012.49 1012.46
1012.38 1013.00 1013.53 1013.87 1013.93 1013.67 1013.09 1012.23 1011.19 1010.09 1009.07 1008.24 1007.69 1007.47 1007.54 1007.88 1008.40 1009.02 1009.66 1010.25 1010.76 1011.20 1011.57 1011.90 1012.21 1012.52 1012.82 1013.11 1013.36 1013.55 1013.67 1013.71 1013.68 1013.62 1013.54 1013.47 1013.43 1013.42 1013.44 1013.47 1013.48 1013.46 1013.39 1013.29 1013.15 1013.01 1012.87 1012.77 1012.71
1012.34 1012.98 1013.52 1013.86 1013.92 1013.65 1013.06 1012.19 1011.15 1010.06 1009.03 1008.21 1007.65 1007.41 1007.47 1007.79 1008.30 1008.90 1009.51 1010.08 1010.58 1011.00 1011.34 1011.64 1011.93 1012.21 1012.49 1012.76 1013.01 1013.22 1013.36 1013.45 1013.47 1013.45 1013.41 1013.38 1013.37 1013.39 1013.43 1013.47 1013.51 1013.51 1013.48 1013.41 1013.31 1013.19 1013.07 1012.96 1012.87
1012.24 1012.83 1013.32 1013.61 1013.63 1013.34 1012.75 1011.91 1010.91 1009.85 1008.88 1008.09 1007.57 1007.34 1007.40 1007.70 1008.18 1008.75 1009.34 1009.88 1010.35 1010.74 1011.06 1011.34 1011.60 1011.86 1012.13 1012.40 1012.66 1012.89 1013.07 1013.20 1013.27 1013.30 1013.31 1013.31 1013.32 1013.35 1013.40 1013.45 1013.50 1013.53 1013.52 1013.48 1013.41 1013.31 1013.19 1013.08 1012.97
1012.07 1012.55 1012.92 1013.12 1013.07 1012.75 1012.17 1011.37 1010.42 1009.45 1008.56 1007.84 1007.37 1007.17 1007.24 1007.53 1007.99 1008.52 1009.07 1009.58 1010.02 1010.39 1010.69 1010.96 1011.22 1011.48 1011.76 1012.04 1012.33 1012.59 1012.82 1013.00 1013.12 1013.19 1013.24 1013.26 1013.29 1013.33 1013.38 1013.44 1013.49 1013.53 1013.55 1013.53 1013.48 1013.39 1013.29 1013.17 1013.05
Thickness
5788 5788 5787 5779 5766 5760 5758 5767 5775 5774 5777 5784 5786 5784 5778 5772 5765 5756 5772 5779 5778 5775 5771 5765 5761 5759 5757 5755 5754 5753 5751 5750 5750 5750 5750 5749 5749 5749 5749 5749 5750 5750 5750 5750 5751 5751 5752 5753 5754
5789 5786 5780 5771 5758 5752 5759 5770 5771 5775 5780 5783 5783 5780 5775 5769 5773 5772 5772 5773 5774 5770 5766 5762 5757 5754 5753 5751 5749 5748 5747 5746 5745 5746 5746 5746 5746 5746 5746 5746 5747 5747 5747 5748 5748 5748 5749 5750 5751
5787 5784 5771 5763 5756 5756 5760 5771 5772 5777 5781 5779 5775 5776 5772 5766 5769 5770 5769 5770 5768 5765 5761 5756 5752 5749 5747 5746 5744 5743 5742 5741 5740 5741 5741 5741 5742 5742 5742 5742 5743 5744 5744 5744 5745 5745 5745 5747 5748
5783 5774 5768 5758 5754 5763 5768 5772 5775 5772 5774 5777 5774 5767 5769 5769 5769 5769 5768 5767 5763 5759 5755 5750 5746 5744 5742 5740 5739 5738 5737 5736 5735 5735 5736 5736 5737 5738 5738 5739 5739 5740 5741 5742 5742 5742 5742 5744 5745
5780 5768 5757 5755 5759 5767 5774 5777 5776 5771 5770 5772 5771 5762 5759 5765 5768 5766 5764 5761 5757 5754 5750 5746 5740 5738 5736 5734 5733 5732 5731 5730 5730 5730 5730 5731 5732 5733 5733 5734 5735 5737 5738 5738 5739 5740 5740 5741 5742
5768 5764 5753 5752 5759 5767 5773 5776 5775 5771 5769 5769 5767 5760 5756 5763 5762 5760 5759 5756 5753 5749 5745 5741 5735 5733 5730 5729 5727 5726 5725 5725 5724 5724 5725 5725 5726 5727 5728 5729 5731 5732 5734 5735 5735 5736 5737 5737 5739
5764 5759 5754 5757 5756 5760 5768 5774 5771 5768 5766 5767 5769 5757 5754 5758 5759 5758 5755 5751 5748 5744 5741 5738 5735 5732 5727 5724 5722 5721 5720 5719 5719 5718 5719 5719 5720 5721 5722 5724 5725 5727 5729 5731 5732 5733 5733 5734 5736
5771 5762 5756 5757 5755 5757 5768 5771 5772 5768 5765 5771 5769 5756 5751 5756 5757 5754 5751 5747 5744 5741 5738 5735 5732 5729 5727 5724 5720 5717 5715 5714 5714 5713 5713 5714 5715 5716 5717 5719 5720 5722 5724 5726 5728 5729 5730 5731 5733
5769 5754 5750 5757 5757 5761 5768 5766 5768 5772 5767 5765 5766 5763 5762 5759 5755 5749 5745 5742 5740 5737 5736 5734 5731 5727 5724 5722 5718 5715 5713 5711 5710 5711 5710 5710 5713 5715 5714 5715 5715 5718 5720 5722 5725 5726 5727 5728 5730
5759 5748 5755 5764 5767 5765 5765 5765 5764 5762 5758 5757 5757 5757 5759 5754 5750 5745 5742 5739 5737 5735 5734 5732 5729 5725 5723 5719 5717 5714 5713 5711 5709 5709 5708 5708 5708 5709 5709 5709 5710 5713 5715 5717 5720 5722 5724 5725 5728
5757 5753 5760 5765 5768 5767 5763 5763 5765 5758 5751 5756 5755 5753 5753 5750 5747 5744 5742 5739 5736 5734 5730 5729 5727 5724 5721 5717 5715 5712 5710 5708 5707 5705 5704 5703 5704 5705 5706 5707 5709 5710 5712 5715 5717 5719 5723 5724 5725
5755 5757 5761 5764 5766 5764 5762 5762 5759 5757 5759 5767 5765 5760 5753 5748 5746 5744 5741 5738 5735 5732 5729 5727 5725 5723 5719 5715 5712 5710 5708 5706 5704 5701 5700 5700 5700 5700 5702 5703 5705 5706 5708 5710 5713 5716 5720 5722 5723
5750 5753 5758 5762 5762 5763 5762 5758 5757 5759 5765 5766 5763 5756 5751 5749 5747 5745 5743 5739 5734 5729 5727 5725 5722 5720 5716 5712 5709 5709 5705 5703 5701 5696 5695 5695 5696 5696 5698 5700 5700 5702 5704 5707 5709 5713 5717 5719 5722
5752 5753 5754 5757 5758 5760 5756 5757 5755 5761 5764 5760 5756 5753 5751 5749 5746 5743 5739 5736 5734 5729 5727 5724 5721 5718 5715 5712 5709 5706 5703 5699 5697 5694 5692 5690 5691 5692 5693 5696 5697 5698 5700 5702 5705 5709 5711 5715 5718
5750 5747 5749 5753 5755 5757 5754 5749 5755 5764 5761 5756 5754 5753 5750 5749 5746 5742 5741 5737 5736 5732 5728 5724 5720 5717 5713 5710 5706 5704 5700 5697 5694 5691 5689 5687 5686 5687 5689 5691 5693 5695 5697 5699 5702 5706 5708 5711 5714
5745 5742 5739 5749 5753 5754 5747 5742 5758 5763 5758 5753 5753 5753 5748 5747 5746 5745 5743 5739 5737 5732 5728 5723 5719 5715 5712 5707 5704 5703 5699 5695 5692 5689 5686 5684 5684 5684 5684 5686 5688 5690 5693 5696 5698 5700 5703 5706 5709
5733 5733 5737 5744 5751 5750 5746 5745 5756 5760 5756 5753 5752 5754 5749 5747 5746 5745 5743 5739 5736 5731 5727 5724 5719 5714 5710 5706 5703 5700 5697 5693 5690 5686 5683 5681 5681 5681 5682 5682 5683 5687 5689 5692 5695 5698 5700 5702 5704
5727 5734 5737 5740 5747 5745 5743 5747 5756 5758 5754 5754 5754 5753 5750 5748 5747 5746 5743 5739 5734 5730 5727 5723 5717 5713 5709 5706 5704 5699 5695 5692 5688 5685 5681 5678 5678 5678 5678 5679 5681 5682 5684 5686 5689 5692 5695 5698 5701
5737 5735 5735 5742 5748 5742 5742 5747 5756 5760 5754 5752 5753 5752 5751 5750 5751 5747 5742 5737 5733 5729 5725 5722 5718 5713 5708 5705 5701 5697 5694 5690 5687 5683 5678 5676 5675 5675 5676 5676 5677 5677 5679 5682 5686 5688 5691 5695 5698
5733 5730 5734 5741 5743 5741 5743 5747 5759 5761 5756 5757 5756 5755 5753 5750 5748 5743 5740 5738 5734 5729 5726 5723 5718 5713 5708 5703 5700 5696 5692 5690 5686 5682 5678 5676 5674 5673 5674 5674 5675 5675 5676 5678 5681 5683 5687 5691 5694
5729 5730 5733 5732 5736 5739 5736 5743 5753 5759 5758 5757 5757 5759 5759 5753 5749 5744 5741 5738 5734 5729 5726 5722 5718 5712 5707 5703 5699 5695 5692 5689 5686 5682 5678 5675 5673 5671 5671 5671 5673 5673 5675 5676 5677 5680 5682 5685 5690
5725 5735 5732 5730 5728 5732 5731 5726 5748 5754 5750 5752 5754 5755 5756 5755 5752 5748 5743 5738 5734 5731 5728 5723 5718 5713 5708 5703 5699 5695 5689 5686 5684 5681 5679 5676 5673 5671 5670 5670 5670 5672 5673 5674 5676 5678 5680 5681 5684
5729 5730 5731 5730 5729 5728 5732 5725 5743 5749 5747 5753 5757 5756 5756 5755 5752 5748 5745 5741 5737 5732 5727 5722 5717 5712 5707 5702 5697 5693 5691 5687 5685 5682 5679 5677 5675 5672 5670 5669 5669 5670 5671 5672 5673 5675 5677 5680 5681
5727 5727 5727 5728 5728 5716 5728 5722 5731 5750 5750 5755 5758 5758 5757 5756 5753 5749 5746 5741 5736 5731 5726 5721 5715 5711 5706 5701 5698 5694 5690 5687 5684 5682 5679 5678 5676 5674 5671 5669 5669 5670 5670 5670 5671 5673 5674 5676 5677
5726 5720 5711 5711 5712 5718 5726 5720 5733 5753 5754 5753 5755 5758 5758 5756 5752 5748 5743 5738 5735 5730 5725 5721 5716 5711 5707 5703 5700 5696 5692 5689 5686 5683 5681 5678 5678 5675 5672 5671 5670 5670 5669 5669 5669 5671 5672 5674 5674
5726 5725 5709 5699 5705 5718 5723 5722 5744 5755 5755 5755 5756 5757 5757 5754 5752 5748 5745 5741 5736 5731 5726 5722 5717 5713 5709 5704 5701 5698 5694 5691 5688 5684 5682 5680 5678 5676 5673 5671 5670 5669 5668 5669 5668 5670 5670 5671 5672
5723 5724 5730 5719 5715 5708 5724 5734 5748 5755 5752 5752 5752 5752 5753 5752 5750 5748 5746 5742 5738 5733 5728 5723 5719 5714 5711 5706 5702 5699 5696 5692 5689 5686 5683 5682 5680 5677 5675 5673 5671 5670 5668 5668 5668 5668 5668 5668 5669
5729 5729 5719 5712 5700 5699 5713 5721 5731 5744 5747 5750 5750 5750 5752 5752 5750 5749 5746 5742 5739 5735 5730 5726 5721 5717 5713 5708 5704 5700 5697 5694 5689 5688 5684 5683 5681 5678 5676 5676 5674 5672 5670 5669 5667 5668 5666 5667 5666
5717 5716 5719 5717 5711 5698 5698 5719 5744 5743 5746 5748 5751 5753 5752 5751 5750 5748 5746 5744 5740 5736 5731 5727 5723 5718 5714 5710 5706 5701 5698 5695 5692 5689 5686 5683 5682 5680 5678 5676 5675 5674 5672 5671 5668 5667 5666 5666 5667
5726 5724 5720 5708 5708 5707 5702 5718 5751 5746 5747 5747 5750 5752 5753 5752 5750 5748 5746 5744 5740 5736 5733 5729 5725 5720 5716 5712 5708 5704 5700 5696 5694 5691 5688 5686 5684 5682 5680 5677 5675 5674 5672 5670 5668 5666 5665 5665 5665